1845 visiteurs
Prévisions de votre ville :
Vigilance : 37 départements 3 départements Mise à jour le 13/11/2019 à 16:09 - Voir la carte

Paris Roissy CDG (95380) le 13/11/2019 à 21:30 Choisir station

7°C 81 % S Vit. moyenne 19 kmh/h

Relevés météo quotidiens pour la station de :

UTC
S: Synop
M: Metar
Loc T°C
(°C)
Td
(°C)
HR
(%)
Vis
(km)
Néb
(octa)
Vent
(km/h)
Pression
(mb)
Précipitations
(mm)
Temps
              MOY
10 min
DIR RAF 1h MESURE VAR SUR 3h    
S 00 h 02h 20.5 12.5 60 60 - 15 30 1012.0 0.0/3h 0.0/3h -
S 01 h 03h 19.8 11.8 60 60 - 15 26 1011.8 -0.2/3h 0.0/1h -
S 02 h 04h 19.4 11.2 59 60 - 6 11 1011.7 -0.4/3h 0.0/1h -
S 03 h 05h 18.8 11.6 63 60 - 7 15 1011.7 -0.4/3h 0.0/3h -
S 04 h 06h 19.9 8.9 49 60 - 19 37 1011.6 -0.2/3h 0.0/1h -
S 05 h 07h 20.8 7.8 43 45 - 13 43 1012.0 +0.3/3h 0.0/1h -
S 06 h 08h 21.7 9.2 45 40 - 15 28 1012.0 +0.4/3h 0.0/3h - 4.8/24h -
S 07 h 09h 23.6 8.1 37 30 - 13 26 1012.3 +0.8/3h 0.0/1h -
S 08 h 10h 25.5 8.9 35 20 - 31 48 1012.3 +0.5/3h 0.0/1h -
S 09 h 11h 26.9 8.8 32 6 - 31 61 1012.2 +0.4/3h 0.0/3h -
S 10 h 12h 28.2 8.5 29 3.4 - 28 52 1012.2 +0.1/3h 0.0/1h -
S 11 h 13h 29.9 9.4 28 6 - 28 61 1011.8 -0.3/3h 0.0/1h -
S 12 h 14h 30.9 8.0 24 3.9 - 13 28 1011.7 -0.3/3h 0.0/6h - 0.0/3h -
S 13 h 15h 32.2 6.4 20 2.2 - 28 50 1011.1 -0.9/3h 0.0/1h -
S 14 h 16h 33.0 6.3 19 26 - 28 56 1010.9 -0.8/3h 0.0/1h -
S 15 h 17h 33.9 7.0 19 5 - 13 28 1010.8 -0.8/3h 0.0/3h -
S 16 h 18h 32.6 7.4 21 3.2 - 22 48 1010.8 -0.3/3h 0.0/1h -
S 17 h 19h 31.6 7.9 23 3.6 - 22 44 1010.9 -0.1/3h 0.0/1h -
S 18 h 20h 30.1 7.9 25 2.9 - 19 43 1011.2 +0.3/3h 0.0/12h - 0.0/3h -
S 19 h 21h 27.7 7.5 28 7 - 24 44 1011.7 +0.7/3h 0.0/1h -
S 20 h 22h 25.9 6.5 29 60 - 9 22 1012.5 +1.4/3h 0.0/1h -
S 21 h 23h 24.8 6.5 31 60 - 15 30 1013.0 +1.5/3h 0.0/3h -
S 22 h 00h 24.1 6.4 32 60 - 15 28 1013.1 +1.2/3h 0.0/1h -
S 23 h 01h 23.2 6.5 34 60 - 17 33 1013.0 +0.4/3h 0.0/1h -
evolution des temperatures
cumul des precipitations
vent moyen et rafales
pression atmospherique

Un tiret (-) signifie que les données ne sont pas disponibles.

Passez la souris sur les pictos temps pour avoir plus de précisions. Passez les flèches sur l'icône de la direction du vent pour voir la direction précise en degrés.

Les données de l'heure en cours sont disponibles à partir de H+15 minutes.


S signifie station Synop, plus complète qu'une station Metar (M). Il y a +1h de différence entre l'heure UTC et l'heure légale en hiver et +2h en été.

Td est la mesure du point de rosée.

HR est l'humidité relative/p>

Vis est la visibilité

Néb est la nébulosité du ciel (couverture nuageuse) exprimée en octas (de 0/8 à 8/8).

Vent moy 10 min donne le vent moyen sur les 10 minutes qui précèdent le relevé.

Vent raf 1h donne la rafale maximale mesurée dans l'heure qui précède le relevé.


Les données les plus anciennes remontent à avril 2014.

Les données présentées sur cette page proviennent des stations météo officielles. Les relevés sont effectués aux normes en vigueur (anémomètre à 10m de haut, thermomètre sous abri normalisé à 2m du sol...)

Météo 60 décline toute responsabilité en cas d'absence de données, d'erreurs, de mauvaise utilisation ou interprétation et n'est pas habilité à fournir des certificats intempéries.